GW4210 Weather Reports


time (UTC)temp
F
wind
direction
speed
knots
gust
knots
rain 1hr
in
rain 24hr
in
rain mn
in
humidity
%
barometer
mb
20260509102022 90 295 3.5 7.0 0.00 0.00 0.00 60 1009.7
20260509101606 90 24 2.6 9.6 0.00 0.00 0.00 58 1009.6
20260509101026 90 124 6.1 9.6 0.00 0.00 0.00 59 1009.1
20260509100523 91 107 7.0 10.4 0.00 0.00 0.00 58 1009.0
20260509100044 91 112 7.8 11.3 0.00 0.00 0.00 58 1008.9
20260509095521 91 115 7.0 12.2 0.00 0.00 0.00 58 1008.7
20260509095021 91 134 7.8 12.2 0.00 0.00 0.00 56 1008.7
20260509094541 92 110 7.8 12.2 0.00 0.00 0.00 56 1008.5
20260509094024 92 119 9.6 12.2 0.00 0.00 0.00 55 1008.4
20260509093523 92 130 8.7 13.9 0.00 0.00 0.00 54 1008.3
20260509093041 93 117 8.7 13.9 0.00 0.00 0.00 53 1008.4
20260509092520 93 115 9.6 13.9 0.00 0.00 0.00 52 1008.3
20260509092021 94 115 10.4 13.9 0.00 0.00 0.00 52 1008.2
20260509091543 94 115 9.6 13.9 0.00 0.00 0.00 52 1008.1
20260509091021 95 123 10.4 13.9 0.00 0.00 0.00 52 1007.9
20260509090522 95 123 9.6 14.8 0.00 0.00 0.00 51 1007.9
20260509090041 95 128 10.4 14.8 0.00 0.00 0.00 50 1007.9
20260509085521 96 118 8.7 13.9 0.00 0.00 0.00 50 1007.9
20260509085023 96 114 7.0 13.0 0.00 0.00 0.00 51 1007.8
20260509084537 96 118 7.0 10.4 0.00 0.00 0.00 48 1007.8
20260509084023 96 129 7.0 10.4 0.00 0.00 0.00 49 1007.9
20260509083521 96 136 7.0 10.4 0.00 0.00 0.00 49 1007.8
20260509083038 96 137 7.8 13.0 0.00 0.00 0.00 47 1007.8
20260509082522 96 135 8.7 13.0 0.00 0.00 0.00 48 1007.7
20260509082022 96 145 6.1 9.6 0.00 0.00 0.00 51 1007.6
20260509081543 97 143 6.1 9.6 0.00 0.00 0.00 48 1007.7
20260509081021 96 125 6.1 9.6 0.00 0.00 0.00 48 1007.5
20260509080523 97 159 3.5 8.7 0.00 0.00 0.00 51 1007.5
20260509080039 96 96 5.2 8.7 0.00 0.00 0.00 50 1007.5
20260509075521 96 135 4.3 10.4 0.00 0.00 0.00 55 1007.6
20260509075021 96 166 4.3 13.0 0.00 0.00 0.00 51 1007.6
20260509074545 96 127 6.1 13.9 0.00 0.00 0.00 50 1007.5
20260509074021 97 154 7.0 13.9 0.00 0.00 0.00 52 1007.5
20260509073521 97 157 6.1 10.4 0.00 0.00 0.00 49 1007.5
20260509073033 97 160 1.7 7.8 0.00 0.00 0.00 49 1007.5
20260509072522 97 122 4.3 8.7 0.00 0.00 0.00 48 1007.5
20260509072020 97 128 3.5 9.6 0.00 0.00 0.00 51 1007.6
20260509071553 97 159 6.1 9.6 0.00 0.00 0.00 51 1007.7
20260509071022 97 182 4.3 7.8 0.00 0.00 0.00 49 1007.7
20260509070521 97 133 4.3 7.8 0.00 0.00 0.00 49 1007.8
20260509070042 97 104 5.2 7.8 0.00 0.00 0.00 52 1007.9
20260509065523 97 320 1.7 7.0 0.00 0.00 0.00 46 1007.9
20260509065025 97 165 3.5 7.0 0.00 0.00 0.00 53 1008.0
20260509064543 97 247 1.7 7.8 0.00 0.00 0.00 49 1008.1
20260509064027 97 156 5.2 7.8 0.00 0.00 0.00 46 1008.2
20260509063520 97 153 1.7 9.6 0.00 0.00 0.00 50 1008.2
20260509063036 97 142 4.3 10.4 0.00 0.00 0.00 52 1008.2
20260509062525 98 108 6.1 10.4 0.00 0.00 0.00 48 1008.2
20260509062026 98 112 4.3 7.8 0.00 0.00 0.00 51 1008.3
20260509061543 98 0 0.9 6.1 0.00 0.00 0.00 48 1008.3
20260509061030 97 98 3.5 6.1 0.00 0.00 0.00 50 1008.5
20260509060522 97 293 0.9 7.0 0.00 0.00 0.00 48 1008.5
20260509060041 97 123 2.6 7.0 0.00 0.00 0.00 48 1008.7
20260509055521 97 265 0.9 5.2 0.00 0.00 0.00 49 1008.8
20260509055023 97 173 2.6 5.2 0.00 0.00 0.00 48 1008.9
20260509054548 96 342 2.6 6.1 0.00 0.00 0.00 48 1009.0
20260509054023 96 148 3.5 7.0 0.00 0.00 0.00 52 1009.1
20260509053525 97 138 3.5 8.7 0.00 0.00 0.00 54 1009.1
20260509053040 96 74 4.3 8.7 0.00 0.00 0.00 52 1009.2
20260509052521 96 94 2.6 6.1 0.00 0.00 0.00 52 1009.2
20260509052023 96 144 2.6 6.1 0.00 0.00 0.00 54 1009.4
20260509051539 95 159 3.5 7.0 0.00 0.00 0.00 52 1009.5
20260509051021 95 213 5.2 7.0 0.00 0.00 0.00 53 1009.6
20260509050521 95 185 1.7 6.1 0.00 0.00 0.00 58 1009.5
20260509050045 96 168 3.5 6.1 0.00 0.00 0.00 55 1009.8
20260509045525 96 231 0.9 4.3 0.00 0.00 0.00 54 1009.9
20260509045021 97 360 2.6 7.0 0.00 0.00 0.00 52 1009.9
20260509044542 96 84 1.7 8.7 0.00 0.00 0.00 53 1010.1
20260509044022 95 101 4.3 9.6 0.00 0.00 0.00 54 1010.3
20260509043522 95 78 6.1 9.6 0.00 0.00 0.00 56 1010.4
20260509043040 95 155 0.9 5.2 0.00 0.00 0.00 54 1010.6
20260509042523 94 169 2.6 8.7 0.00 0.00 0.00 60 1010.7
20260509042028 94 155 2.6 8.7 0.00 0.00 0.00 56 1010.8
20260509041607 94 154 1.7 5.2 0.00 0.00 0.00 54 1010.9
20260509041024 93 132 0.9 7.0 0.00 0.00 0.00 58 1010.9
20260509040523 93 192 3.5 7.0 0.00 0.00 0.00 57 1011.0
20260509040039 93 138 4.3 7.0 0.00 0.00 0.00 59 1011.1
20260509035523 93 168 2.6 4.3 0.00 0.00 0.00 64 1011.2
20260509035022 93 194 1.7 6.1 0.00 0.00 0.00 66 1011.1
20260509034537 93 165 3.5 6.1 0.00 0.00 0.00 58 1011.2
20260509034021 94 165 2.6 5.2 0.00 0.00 0.00 59 1011.3
20260509033525 94 93 0.9 8.7 0.00 0.00 0.00 59 1011.5
20260509033040 93 111 4.3 9.6 0.00 0.00 0.00 57 1011.6
20260509032521 93 108 4.3 9.6 0.00 0.00 0.00 59 1011.6
20260509032024 93 186 2.6 17.4 0.00 0.00 0.00 61 1011.5
20260509031540 93 78 1.7 17.4 0.00 0.00 0.00 58 1011.7
20260509031023 93 130 4.3 13.0 0.00 0.00 0.00 59 1011.7
20260509030521 93 205 0.9 8.7 0.00 0.00 0.00 58 1011.8
20260509030039 93 115 2.6 7.8 0.00 0.00 0.00 59 1011.9
20260509025520 93 124 1.7 7.8 0.00 0.00 0.00 60 1012.0
20260509025023 92 103 4.3 10.4 0.00 0.00 0.00 60 1012.1
20260509024539 91 170 1.7 10.4 0.00 0.00 0.00 64 1012.1
20260509024025 92 126 4.3 9.6 0.00 0.00 0.00 61 1012.0
20260509023525 91 157 5.2 7.0 0.00 0.00 0.00 60 1012.1
20260509023103 91 135 1.7 6.1 0.00 0.00 0.00 63 1012.1
20260509022523 91 163 1.7 7.0 0.00 0.00 0.00 62 1012.2
20260509022021 91 161 3.5 7.0 0.00 0.00 0.00 65 1012.2
20260509021541 91 152 4.3 7.0 0.00 0.00 0.00 63 1012.2
20260509021020 91 162 2.6 7.8 0.00 0.00 0.00 62 1012.2
20260509020522 91 110 3.5 7.8 0.00 0.00 0.00 61 1012.3
20260509020050 90 90 3.5 7.0 0.00 0.00 0.00 63 1012.3
20260509015522 90 98 1.7 4.3 0.00 0.00 0.00 63 1012.4
20260509015026 90 170 2.6 6.1 0.00 0.00 0.00 65 1012.4
20260509014540 89 167 3.5 7.0 0.00 0.00 0.00 65 1012.5
20260509014020 89 169 4.3 8.7 0.00 0.00 0.00 66 1012.5
20260509013521 89 156 4.3 8.7 0.00 0.00 0.00 68 1012.5
20260509013043 89 207 4.3 6.1 0.00 0.00 0.00 65 1012.5
20260509012525 88 177 2.6 6.1 0.00 0.00 0.00 67 1012.6
20260509012021 88 221 1.7 4.3 0.00 0.00 0.00 70 1012.7
20260509011537 88 222 1.7 4.3 0.00 0.00 0.00 68 1012.7
20260509011023 88 277 1.7 3.5 0.00 0.00 0.00 69 1012.7
20260509010525 88 165 1.7 3.5 0.00 0.00 0.00 69 1012.7
20260509010042 87 195 1.7 4.3 0.00 0.00 0.00 68 1012.8
20260509005524 87 182 1.7 6.1 0.00 0.00 0.00 73 1012.7
20260509005020 87 203 2.6 6.1 0.00 0.00 0.00 73 1012.5
20260509004542 87 173 4.3 6.1 0.00 0.00 0.00 71 1012.5
20260509004021 87 160 0.9 3.5 0.00 0.00 0.00 72 1012.3
20260509003522 87 148 2.6 4.3 0.00 0.00 0.00 69 1012.3
20260509003039 86 158 0.9 5.2 0.00 0.00 0.00 69 1012.3
20260509002521 86 151 3.5 5.2 0.00 0.00 0.00 69 1012.3
20260509002021 86 0 0.0 1.7 0.00 0.00 0.00 74 1012.3
20260509001536 85 171 0.9 2.6 0.00 0.00 0.00 74 1012.3
20260509001022 85 242 1.7 3.5 0.00 0.00 0.00 74 1012.3
20260509000521 85 198 1.7 3.5 0.00 0.00 0.00 74 1012.2
20260509000043 84 229 1.7 2.6 0.00 0.00 0.00 74 1012.2
20260508235522 84 202 1.7 2.6 0.00 0.00 0.00 76 1012.2
20260508235021 84 212 1.7 2.6 0.00 0.00 0.00 79 1012.2
20260508234541 84 222 1.7 2.6 0.00 0.00 0.00 80 1012.1
20260508234023 84 232 1.7 2.6 0.00 0.00 0.00 79 1012.1
20260508233523 83 202 0.0 0.9 0.00 0.00 0.00 78 1012.0
20260508233039 82 0 0.0 0.0 0.00 0.00 0.00 80 1012.1
20260508232520 82 0 0.0 0.9 0.00 0.00 0.00 82 1012.0
20260508232022 81 0 0.0 1.7 0.00 0.00 0.00 81 1012.1
20260508231537 80 259 0.0 1.7 0.00 0.00 0.00 84 1012.0
20260508231023 80 259 0.0 0.9 0.00 0.00 0.00 83 1012.0
20260508230523 80 259 0.0 1.7 0.00 0.00 0.00 82 1012.0
20260508230041 80 259 0.9 1.7 0.00 0.00 0.00 83 1011.8
20260508225521 80 252 0.9 1.7 0.00 0.00 0.00 83 1011.8
20260508225025 80 0 0.0 1.7 0.00 0.00 0.00 83 1011.7
20260508224535 80 0 0.0 1.7 0.00 0.00 0.00 83 1011.5
20260508224023 79 86 0.0 1.7 0.00 0.00 0.00 84 1011.5
20260508223525 79 0 0.0 1.7 0.00 0.00 0.00 85 1011.4
20260508223040 78 86 0.0 1.7 0.00 0.00 0.00 85 1011.4
20260508222521 78 0 0.0 1.7 0.00 0.00 0.00 86 1011.3
20260508222024 77 84 0.9 1.7 0.00 0.00 0.00 86 1011.2
20260508221538 77 0 0.0 0.0 0.00 0.00 0.00 86 1011.1
20260508221024 77 0 0.0 0.0 0.00 0.00 0.00 87 1011.1
20260508220523 77 0 0.0 0.0 0.00 0.00 0.00 87 1011.1
20260508220035 76 0 0.0 0.0 0.00 0.00 0.00 88 1011.0
20260508215531 76 0 0.0 0.9 0.00 0.00 0.00 88 1011.0
20260508215021 76 0 0.0 0.9 0.00 0.00 0.00 88 1010.9
20260508214536 76 0 0.0 0.9 0.00 0.00 0.00 88 1010.8
20260508214021 76 0 0.0 0.0 0.00 0.00 0.00 88 1010.8
20260508213521 77 0 0.0 1.7 0.00 0.00 0.00 87 1010.8
20260508213041 77 0 0.0 2.6 0.00 0.00 0.00 86 1010.8
20260508212523 77 9 0.9 3.5 0.00 0.00 0.00 86 1010.8
20260508212023 77 17 1.7 3.5 0.00 0.00 0.00 86 1010.7
20260508211542 77 36 1.7 3.5 0.00 0.00 0.00 86 1010.7
20260508211023 76 0 0.0 0.0 0.00 0.00 0.00 87 1010.7
20260508210523 76 0 0.0 0.0 0.00 0.00 0.00 87 1010.7
20260508210040 76 0 0.0 0.0 0.00 0.00 0.00 88 1010.7
20260508205520 76 0 0.0 0.0 0.00 0.00 0.00 88 1010.7
20260508205024 77 0 0.0 0.0 0.00 0.00 0.00 88 1010.7
20260508204544 77 0 0.0 0.0 0.00 0.00 0.00 88 1010.6
20260508204027 77 0 0.0 0.0 0.00 0.00 0.00 88 1010.6
20260508203523 77 0 0.0 0.0 0.00 0.00 0.00 88 1010.6
20260508203039 77 0 0.0 0.0 0.00 0.00 0.00 88 1010.6
20260508202524 77 0 0.0 0.0 0.00 0.00 0.00 87 1010.6
20260508202021 77 0 0.0 0.0 0.00 0.00 0.00 86 1010.5
20260508201539 77 0 0.0 0.0 0.00 0.00 0.00 86 1010.5
20260508201023 78 0 0.0 0.0 0.00 0.00 0.00 85 1010.4
20260508200524 78 0 0.0 0.0 0.00 0.00 0.00 84 1010.4
20260508200100 78 0 0.0 0.0 0.00 0.00 0.00 84 1010.3
20260508195522 78 0 0.0 0.0 0.00 0.00 0.00 83 1010.3
20260508195023 78 0 0.0 0.0 0.00 0.00 0.00 83 1010.3
20260508194538 78 0 0.0 0.0 0.00 0.00 0.00 83 1010.2
20260508194022 78 0 0.0 0.0 0.00 0.00 0.00 83 1010.3
20260508193522 78 0 0.0 0.0 0.00 0.00 0.00 83 1010.4
20260508193046 78 0 0.0 0.0 0.00 0.00 0.00 84 1010.3
20260508192521 78 0 0.0 0.0 0.00 0.00 0.00 84 1010.2
20260508192023 78 0 0.0 0.0 0.00 0.00 0.00 84 1010.2
20260508191539 78 0 0.0 0.0 0.00 0.00 0.00 85 1010.2
20260508191021 78 0 0.0 0.0 0.00 0.00 0.00 85 1010.3
20260508190520 78 0 0.0 0.0 0.00 0.00 0.00 85 1010.4
20260508190035 78 0 0.0 0.0 0.00 0.00 0.00 85 1010.4
20260508185521 78 0 0.0 0.0 0.00 0.00 0.00 85 1010.4
20260508185026 78 0 0.0 0.0 0.00 0.00 0.00 85 1010.4
20260508184543 78 0 0.0 0.0 0.00 0.00 0.00 85 1010.4
20260508184020 78 0 0.0 0.0 0.00 0.00 0.00 85 1010.4
20260508183522 78 0 0.0 0.0 0.00 0.00 0.00 85 1010.5
20260508183042 78 0 0.0 0.0 0.00 0.00 0.00 85 1010.6
20260508182523 78 0 0.0 0.0 0.00 0.00 0.00 86 1010.5
20260508182020 78 0 0.0 0.0 0.00 0.00 0.00 87 1010.5
20260508181546 78 0 0.0 0.0 0.00 0.00 0.00 87 1010.5
20260508181023 78 0 0.0 0.0 0.00 0.00 0.00 86 1010.4
20260508180522 78 0 0.0 0.0 0.00 0.00 0.00 85 1010.4
20260508180038 79 0 0.0 0.0 0.00 0.00 0.00 85 1010.5
20260508175521 79 0 0.0 0.0 0.00 0.00 0.00 84 1010.6
20260508175023 79 0 0.0 0.0 0.00 0.00 0.00 83 1010.7
20260508174539 79 0 0.0 0.0 0.00 0.00 0.00 83 1010.6
20260508174023 79 0 0.0 0.0 0.00 0.00 0.00 83 1010.6
20260508173521 79 0 0.0 0.0 0.00 0.00 0.00 84 1010.7
20260508173041 79 0 0.0 0.0 0.00 0.00 0.00 82 1010.7
20260508172525 79 0 0.0 0.0 0.00 0.00 0.00 83 1010.7
20260508172022 79 0 0.0 0.0 0.00 0.00 0.00 82 1010.7
20260508171539 79 0 0.0 0.0 0.00 0.00 0.00 81 1010.7
20260508171022 80 0 0.0 0.0 0.00 0.00 0.00 81 1010.8
20260508170522 80 0 0.0 0.0 0.00 0.00 0.00 80 1010.9
20260508170039 80 0 0.0 0.0 0.00 0.00 0.00 80 1011.0
20260508165522 80 0 0.0 0.0 0.00 0.00 0.00 81 1011.0
20260508165022 80 0 0.0 0.0 0.00 0.00 0.00 81 1011.0
20260508164542 80 0 0.0 0.0 0.00 0.00 0.00 80 1011.1
20260508164022 80 0 0.0 0.0 0.00 0.00 0.00 81 1011.1
20260508163521 80 0 0.0 0.0 0.00 0.00 0.00 81 1011.2
20260508163038 80 0 0.0 0.0 0.00 0.00 0.00 80 1011.2
20260508162520 81 0 0.0 0.0 0.00 0.00 0.00 81 1011.2
20260508162024 81 0 0.0 0.0 0.00 0.00 0.00 80 1011.1
20260508161543 81 0 0.0 0.0 0.00 0.00 0.00 79 1011.1
20260508161021 81 0 0.0 0.0 0.00 0.00 0.00 80 1011.2
20260508160521 81 0 0.0 0.0 0.00 0.00 0.00 77 1011.2
20260508160038 82 0 0.0 0.0 0.00 0.00 0.00 77 1011.3
20260508155524 82 0 0.0 0.0 0.00 0.00 0.00 75 1011.4
20260508155024 81 0 0.0 0.0 0.00 0.00 0.00 78 1011.5
20260508154602 81 0 0.0 0.0 0.00 0.00 0.00 77 1011.6
20260508154026 81 0 0.0 0.0 0.00 0.00 0.00 76 1011.7
20260508153524 81 0 0.0 0.0 0.00 0.00 0.00 75 1011.8
20260508153036 81 0 0.0 0.0 0.00 0.00 0.00 76 1011.7
20260508152523 81 0 0.0 0.0 0.00 0.00 0.00 79 1011.8
20260508152023 81 0 0.0 0.0 0.00 0.00 0.00 78 1011.8
20260508151540 81 0 0.0 0.0 0.00 0.00 0.00 77 1011.8
20260508151022 81 0 0.0 0.0 0.00 0.00 0.00 77 1011.9
20260508150523 82 0 0.0 0.0 0.00 0.00 0.00 78 1011.9
20260508150037 82 0 0.0 0.0 0.00 0.00 0.00 76 1011.8
20260508145522 82 0 0.0 0.0 0.00 0.00 0.00 78 1011.8
20260508145024 82 0 0.0 0.0 0.00 0.00 0.00 73 1011.8
20260508144554 83 0 0.0 0.0 0.00 0.00 0.00 73 1011.8
20260508144025 83 0 0.0 0.0 0.00 0.00 0.00 72 1011.8
20260508143525 83 0 0.0 0.0 0.00 0.00 0.00 73 1011.8
20260508143039 82 0 0.0 0.0 0.00 0.00 0.00 74 1011.9
20260508142525 82 0 0.0 0.0 0.00 0.00 0.00 74 1011.9
20260508142024 83 0 0.0 0.0 0.00 0.00 0.00 77 1011.9
20260508141539 82 0 0.0 0.0 0.00 0.00 0.00 74 1011.8
20260508141021 82 0 0.0 0.0 0.00 0.00 0.00 75 1011.8
20260508140523 82 0 0.0 0.0 0.00 0.00 0.00 75 1011.9
20260508140037 82 0 0.0 0.0 0.00 0.00 0.00 76 1011.9
20260508135524 82 0 0.0 0.0 0.00 0.00 0.00 74 1011.8
20260508135024 82 0 0.0 0.0 0.00 0.00 0.00 74 1011.8
20260508134551 82 0 0.0 0.0 0.00 0.00 0.00 78 1011.8
20260508134024 82 0 0.0 0.0 0.00 0.00 0.00 79 1011.8
20260508133524 82 0 0.0 0.9 0.00 0.00 0.00 76 1011.8
20260508133050 83 0 0.0 0.9 0.00 0.00 0.00 74 1011.7
20260508132524 83 0 0.0 0.0 0.00 0.00 0.00 74 1011.5
20260508132025 83 0 0.0 0.0 0.00 0.00 0.00 72 1011.6
20260508131545 83 0 0.0 1.7 0.00 0.00 0.00 73 1011.7
20260508131024 83 0 0.0 1.7 0.00 0.00 0.00 73 1011.8
20260508130523 83 352 0.0 1.7 0.00 0.00 0.00 72 1011.8
20260508130038 83 352 0.9 2.6 0.00 0.00 0.00 71 1011.8
20260508125523 83 352 0.9 2.6 0.00 0.00 0.00 71 1011.8
20260508125023 84 360 1.7 3.5 0.00 0.00 0.00 70 1011.7
20260508124538 84 17 1.7 3.5 0.00 0.00 0.00 69 1011.5
20260508124023 84 17 0.9 2.6 0.00 0.00 0.00 68 1011.4
20260508123524 84 101 1.7 3.5 0.00 0.00 0.00 68 1011.2
20260508123046 84 98 2.6 3.5 0.00 0.00 0.00 68 1011.1
20260508122523 84 105 2.6 5.2 0.00 0.00 0.00 68 1011.0
20260508122020 85 117 2.6 7.0 0.00 0.00 0.00 68 1010.9
20260508121545 85 105 3.5 7.0 0.00 0.00 0.00 67 1010.8
20260508121023 85 105 3.5 7.0 0.00 0.00 0.00 67 1010.7
20260508120522 85 114 4.3 7.0 0.00 0.00 0.00 67 1010.6
20260508120039 85 140 3.5 8.7 0.00 0.00 0.00 67 1010.5
20260508115521 85 113 5.2 8.7 0.00 0.00 0.00 66 1010.4
20260508115019 86 119 4.3 8.7 0.00 0.00 0.00 66 1010.4
20260508114538 86 107 5.2 9.6 0.00 0.00 0.00 65 1010.2
20260508114022 86 124 7.0 9.6 0.00 0.00 0.00 65 1010.1
20260508113523 86 121 6.1 9.6 0.00 0.00 0.00 64 1009.9
20260508113040 86 110 7.8 9.6 0.00 0.00 0.00 64 1009.9
20260508112523 87 126 6.1 9.6 0.00 0.00 0.00 64 1009.9
20260508112023 87 112 7.0 10.4 0.00 0.00 0.00 62 1009.8
20260508111538 87 124 7.0 11.3 0.00 0.00 0.00 62 1009.7
20260508111023 87 103 7.8 12.2 0.00 0.00 0.00 62 1009.6
20260508110523 87 136 7.8 12.2 0.00 0.00 0.00 61 1009.8
20260508110039 87 121 9.6 12.2 0.00 0.00 0.00 61 1009.7
20260508105523 88 119 8.7 12.2 0.00 0.00 0.00 61 1009.6
20260508105020 88 126 6.1 10.4 0.00 0.00 0.00 61 1009.6
20260508104538 88 128 6.1 11.3 0.00 0.00 0.00 62 1009.5
20260508104020 88 124 8.7 11.3 0.00 0.00 0.00 61 1009.4
20260508103520 88 113 7.8 11.3 0.00 0.00 0.00 61 1009.3
20260508103041 89 132 6.1 9.6 0.00 0.00 0.00 62 1009.2
20260508102520 89 126 7.0 9.6 0.00 0.00 0.00 62 1009.2